Location: Chiroubles
(46.1812°N, 4.6660°E)
Time: 02:31:40
(UTC+00:00)

Cosmos 2221 Rocket - Pass Details

Date: 15 August 2020
Orbit: 621 x 647 km, 82.5° (Epoch: 19 September)

Event Time Altitude Azimuth Distance (km) Brightness Sun altitude
Rises 21:58:58 0° 346° (NNW) 2,940 8.3 -25.5°
Reaches altitude 10° 22:01:15 10° 341° (NNW) 2,031 7.2 -25.7°
Maximum altitude 22:05:36 51° 267° (W) 810 4.2 -26.0°
Enters shadow 22:05:38 51° 265° (W) 810 4.2 -26.0°
